Weather History for Cairo, IL

Change the Weather History Date:

Sunday, July 14, 2013

  Actual Average Record
Temperature  
Mean Temperature 78 °F -  
Max Temperature 89 °F 90 °F 104 °F (1954)
Min Temperature 66 °F 72 °F 57 °F (1967)
Cooling Degree Days 12    
Growing Degree Days 28 (Base 50)    
Moisture  
Dew Point 69 °F    
Average Humidity 79    
Maximum Humidity 91    
Minimum Humidity 53    
Precipitation  
Precipitation 1.03 in - - ()
Sea Level Pressure  
Sea Level Pressure 30.09 in    
Wind  
Wind Speed 3 mph (ENE)    
Max Wind Speed 12 mph    
Max Gust Speed 21 mph    
Visibility 9 miles    
Events Rain    
Averages and records for this station are not official NWS values.
T = Trace of Precipitation, MM = Missing Value Source: NWS Daily Summary

Daily Weather History Graph

Daily Weather History Graph

Search for Another Location

Airport:

Trip Planner

Search our weather history database for the weather conditions in past years. The results will help you decide how hot, cold, wet, or windy it might be!

Date:

Astronomy

Jul. 14, 2013 Rise Set
Actual Time 5:48 AM CDT 8:16 PM CDT
Civil Twilight 5:18 AM CDT 8:46 PM CDT
Nautical Twilight 4:41 AM CDT 9:24 PM CDT
Astronomical Twilight 3:59 AM CDT 10:05 PM CDT
Moon 11:55 AM CDT (7/14) 11:39 PM CDT (7/14)
Length of Visible Light 15h 28m
Length of Day
14h 28m
Waxing Crescent, 35% of the Moon is Illuminated
Jul 14
Waxing Crescent
Jul 15
First Quarter
Jul 22
Full
Jul 29
Last Quarter
Aug 6
New

Hourly Weather History & Observations

Time (CDT) Temp. Heat Index Dew Point Humidity Pressure Visibility Wind Dir Wind Speed Gust Speed Precip Events Conditions
12:15 AM 69.8 °F - 62.6 °F 78% 30.04 in 10.0 mi Calm Calm - N/A   Clear
12:35 AM 70.0 °F - 63.1 °F 79% 30.03 in 10.0 mi ENE 3.5 mph - N/A   Clear
12:55 AM 69.8 °F - 62.8 °F 78% 30.03 in 10.0 mi ENE 4.6 mph - N/A   Clear
1:15 AM 69.3 °F - 63.0 °F 80% 30.03 in 10.0 mi ENE 3.5 mph - N/A   Clear
1:35 AM 70.9 °F - 64.6 °F 80% 30.03 in 10.0 mi NE 3.5 mph - N/A   Clear
1:55 AM 68.2 °F - 62.6 °F 82% 30.03 in 10.0 mi Calm Calm - N/A   Clear
2:15 AM 69.3 °F - 63.5 °F 82% 30.03 in 10.0 mi Calm Calm - N/A   Clear
2:35 AM 69.3 °F - 63.7 °F 82% 30.04 in 10.0 mi Calm Calm - N/A   Clear
2:55 AM 69.6 °F - 63.7 °F 81% 30.04 in 10.0 mi Calm Calm - N/A   Clear
3:15 AM 68.2 °F - 62.8 °F 83% 30.04 in 10.0 mi Calm Calm - N/A   Clear
3:35 AM 68.4 °F - 63.5 °F 84% 30.04 in 10.0 mi Calm Calm - N/A   Clear
3:55 AM 69.8 °F - 64.8 °F 84% 30.04 in 10.0 mi Calm Calm - N/A   Clear
4:15 AM 66.7 °F - 62.1 °F 85% 30.04 in 7.0 mi NNW 3.5 mph - N/A   Clear
4:35 AM 66.6 °F - 62.2 °F 86% 30.05 in 7.0 mi NNE 4.6 mph - N/A   Clear
4:55 AM 68.9 °F - 64.8 °F 87% 30.05 in 10.0 mi ENE 3.5 mph - N/A   Scattered Clouds
5:15 AM 69.1 °F - 65.1 °F 87% 30.06 in 10.0 mi NE 4.6 mph - N/A   Scattered Clouds
5:35 AM 68.9 °F - 64.6 °F 86% 30.06 in 7.0 mi Calm Calm - N/A   Clear
5:55 AM 68.5 °F - 64.6 °F 87% 30.06 in 7.0 mi ENE 6.9 mph - N/A   Clear
6:15 AM 70.2 °F - 66.2 °F 87% 30.07 in 7.0 mi ENE 4.6 mph - N/A   Clear
6:35 AM 70.5 °F - 66.4 °F 87% 30.07 in 7.0 mi ENE 5.8 mph - N/A   Clear
6:55 AM 71.1 °F - 67.1 °F 87% 30.07 in 7.0 mi ENE 4.6 mph - N/A   Clear
7:15 AM 72.1 °F - 67.8 °F 86% 30.08 in 7.0 mi NE 4.6 mph - N/A   Clear
7:35 AM 73.2 °F - 68.0 °F 84% 30.08 in 10.0 mi ENE 3.5 mph - N/A   Clear
7:55 AM 73.4 °F - 68.0 °F 83% 30.09 in 10.0 mi ENE 5.8 mph - N/A   Clear
8:15 AM 74.1 °F - 68.2 °F 82% 30.10 in 10.0 mi East 5.8 mph - N/A   Clear
8:35 AM 75.2 °F - 68.7 °F 80% 30.10 in 10.0 mi East 5.8 mph - N/A   Clear
8:55 AM 76.3 °F - 69.1 °F 78% 30.10 in 10.0 mi East 3.5 mph - N/A   Clear
9:15 AM 78.1 °F - 70.0 °F 76% 30.11 in 10.0 mi ESE 8.1 mph - N/A   Clear
9:35 AM 78.3 °F - 69.4 °F 74% 30.11 in 10.0 mi East 6.9 mph - N/A   Clear
9:55 AM 79.7 °F - 70.3 °F 73% 30.12 in 10.0 mi ESE 6.9 mph - N/A   Clear
10:15 AM 81.3 °F 85.4 °F 71.2 °F 71% 30.12 in 10.0 mi SE 10.4 mph - N/A   Clear
10:35 AM 81.0 °F 84.7 °F 70.7 °F 71% 30.12 in 10.0 mi SE 9.2 mph - N/A   Clear
10:55 AM 81.3 °F 85.0 °F 70.3 °F 69% 30.12 in 10.0 mi SE 10.4 mph - N/A   Scattered Clouds
11:15 AM 81.5 °F 85.1 °F 70.0 °F 68% 30.12 in 10.0 mi SE 11.5 mph - N/A   Scattered Clouds
11:35 AM 82.6 °F 86.6 °F 70.3 °F 66% 30.12 in 10.0 mi SE 10.4 mph - N/A   Scattered Clouds
11:55 AM 84.6 °F 88.5 °F 69.4 °F 60% 30.12 in 10.0 mi SSE 11.5 mph - N/A   Scattered Clouds
12:15 PM 83.5 °F 87.4 °F 69.8 °F 63% 30.12 in 10.0 mi SE 6.9 mph - N/A   Scattered Clouds
12:35 PM 84.4 °F 88.7 °F 70.0 °F 62% 30.12 in 10.0 mi SSE 9.2 mph - N/A   Mostly Cloudy
12:55 PM 84.7 °F 89.1 °F 70.0 °F 61% 30.12 in 10.0 mi SE 3.5 mph - N/A   Mostly Cloudy
1:15 PM 85.5 °F 89.8 °F 69.4 °F 59% 30.12 in 10.0 mi SE 4.6 mph - N/A   Scattered Clouds
1:35 PM 87.3 °F 92.0 °F 70.0 °F 56% 30.11 in 10.0 mi South 4.6 mph - N/A   Scattered Clouds
1:55 PM 87.3 °F 92.0 °F 69.8 °F 56% 30.10 in 10.0 mi SE 4.6 mph - N/A   Scattered Clouds
2:15 PM 88.0 °F 92.5 °F 69.6 °F 54% 30.10 in 10.0 mi Calm Calm - N/A   Scattered Clouds
2:35 PM 89.4 °F 94.8 °F 70.0 °F 53% 30.09 in 10.0 mi ENE 5.8 mph - N/A   Scattered Clouds
2:55 PM 87.1 °F 90.9 °F 68.5 °F 54% 30.08 in 10.0 mi Calm Calm - N/A   Mostly Cloudy
3:15 PM 81.9 °F 85.8 °F 70.3 °F 68% 30.08 in 3.0 mi WSW 4.6 mph - 0.06 in Rain Heavy Rain
3:35 PM 81.7 °F 86.7 °F 72.9 °F 74% 30.07 in 10.0 mi NW 3.5 mph - 0.06 in   Mostly Cloudy
3:55 PM 80.2 °F 84.5 °F 72.7 °F 78% 30.07 in 7.0 mi WNW 4.6 mph - 0.07 in Rain Light Rain
4:15 PM 79.7 °F - 73.0 °F 80% 30.09 in 7.0 mi Calm Calm - 0.01 in Rain Rain
4:35 PM 76.6 °F - 70.9 °F 82% 30.11 in 0.5 mi NNE 5.8 mph 20.7 mph 0.45 in Rain Heavy Rain
4:55 PM 75.7 °F - 71.1 °F 85% 30.10 in 3.0 mi Calm Calm - 0.78 in Rain Rain
5:15 PM 76.5 °F - 72.3 °F 87% 30.10 in 7.0 mi SSE 3.5 mph - 0.01 in Rain Rain
5:35 PM 76.1 °F - 71.8 °F 86% 30.10 in 1.2 mi Calm Calm - 0.15 in Rain Heavy Rain
5:55 PM 76.8 °F - 72.7 °F 87% 30.09 in 10.0 mi Calm Calm - 0.18 in   Overcast
6:15 PM 77.0 °F - 72.0 °F 84% 30.09 in 10.0 mi Calm Calm - N/A   Mostly Cloudy
6:35 PM 77.9 °F - 72.5 °F 83% 30.09 in 10.0 mi NNE 3.5 mph - N/A   Scattered Clouds
6:55 PM 79.0 °F - 73.4 °F 83% 30.09 in 10.0 mi NNE 3.5 mph - N/A   Scattered Clouds
7:15 PM 79.0 °F - 72.5 °F 80% 30.10 in 10.0 mi NNE 3.5 mph - N/A   Mostly Cloudy
7:35 PM 78.4 °F - 72.5 °F 82% 30.10 in 10.0 mi Calm Calm - N/A   Mostly Cloudy
7:55 PM 77.9 °F - 72.7 °F 84% 30.10 in 10.0 mi NNE 5.8 mph - N/A   Mostly Cloudy
8:15 PM 77.4 °F - 72.7 °F 85% 30.11 in 10.0 mi NNE 5.8 mph - N/A   Mostly Cloudy
8:35 PM 77.4 °F - 73.0 °F 86% 30.11 in 10.0 mi NNE 4.6 mph - N/A   Overcast
8:55 PM 77.0 °F - 72.9 °F 87% 30.12 in 10.0 mi Calm Calm - N/A   Mostly Cloudy
9:15 PM 76.5 °F - 72.7 °F 88% 30.12 in 10.0 mi NE 3.5 mph - N/A   Mostly Cloudy
9:35 PM 76.5 °F - 72.9 °F 89% 30.13 in 10.0 mi NE 3.5 mph - N/A   Overcast
9:55 PM 76.1 °F - 72.7 °F 89% 30.13 in 10.0 mi NE 3.5 mph - N/A   Mostly Cloudy
10:15 PM 76.1 °F - 72.5 °F 89% 30.13 in 7.0 mi NE 4.6 mph - N/A   Scattered Clouds
10:35 PM 75.6 °F - 72.1 °F 89% 30.13 in 10.0 mi NE 3.5 mph - N/A   Clear
10:55 PM 75.2 °F - 72.0 °F 90% 30.13 in 7.0 mi Calm Calm - N/A   Scattered Clouds
11:15 PM 75.2 °F - 71.8 °F 89% 30.13 in 7.0 mi Calm Calm - N/A   Clear
11:35 PM 74.7 °F - 71.6 °F 90% 30.13 in 7.0 mi NE 3.5 mph - N/A   Clear
11:55 PM 74.5 °F - 71.6 °F 91% 30.13 in 5.0 mi NE 4.6 mph - N/A   Clear